Wind_Speed
12 14 14 15 15 14 13 13 12 13 14 14 14 14 15 17 18 20 22 23 23 23 24 25 25 26 26 27 28 28 29 29 29 28 27 25 24 24 23 23 22 22
11 13 13 14 15 15 14 13 13 13 13 13 13 13 13 14 16 17 18 20 22 22 23 24 25 25 25 25 25 26 26 27 28 28 28 27 26 25 24 23 22 22
7 10 10 12 14 15 15 14 14 13 12 12 12 12 12 13 14 14 15 17 18 20 21 22 24 24 24 24 23 23 24 24 25 26 26 26 26 25 24 23 22 22
4 6 7 9 12 13 14 14 14 13 12 12 11 11 12 12 12 12 12 13 15 16 18 19 21 22 23 23 23 22 22 22 23 24 24 24 25 25 24 23 22 22
2 2 1 5 10 13 13 13 13 13 13 13 12 11 10 11 11 11 11 11 12 13 14 15 17 19 20 21 21 21 21 21 21 22 22 22 23 23 23 23 22 22
2 5 6 2 5 9 12 12 11 12 13 14 13 12 10 10 10 10 10 9 10 10 11 12 13 15 17 18 19 20 20 20 20 20 20 21 21 22 22 22 22 22
1 2 4 4 3 2 6 9 9 8 10 12 12 11 11 10 9 9 9 9 9 8 8 9 10 11 13 14 16 17 18 18 19 19 19 19 20 20 21 21 21 22
4 4 4 4 4 4 1 4 5 3 5 8 10 10 9 9 9 9 9 8 8 8 7 8 8 9 10 11 13 14 15 16 17 18 18 18 19 19 19 20 21 21
7 6 5 7 7 6 5 2 1 1 1 5 7 8 7 7 8 8 9 8 8 7 7 7 8 8 9 10 11 12 13 14 15 16 17 18 18 19 19 20 20 21
9 8 5 7 10 9 8 7 6 4 3 2 4 5 5 5 6 6 7 7 8 7 7 7 7 8 9 10 11 11 12 13 13 14 16 16 17 18 19 19 19 20
12 10 8 8 11 11 10 9 8 8 8 7 5 4 4 5 5 5 6 6 6 7 7 7 7 7 8 9 10 11 12 12 12 13 13 14 15 16 17 17 18 18
17 15 13 12 13 13 13 12 12 12 12 12 11 8 6 7 7 6 6 6 5 5 5 6 7 7 7 7 8 9 10 11 11 11 11 12 12 13 14 14 15 16
20 20 18 17 16 16 17 17 16 16 15 15 13 11 10 10 9 8 7 6 5 5 5 4 5 6 6 6 7 7 8 9 9 10 10 10 10 10 11 11 12 13
22 23 23 22 20 20 20 20 20 19 19 17 15 15 14 13 12 11 10 9 7 6 5 5 5 5 5 5 5 6 6 7 8 8 9 9 8 8 9 9 9 10
24 26 26 24 23 22 21 21 21 21 21 19 17 17 18 17 15 14 13 12 10 8 6 6 7 7 8 8 7 7 6 7 7 8 8 9 9 9 9 9 9 9
27 28 28 27 26 25 23 23 22 21 22 21 19 19 20 19 18 17 16 15 13 10 8 7 8 9 11 12 12 12 11 9 9 9 9 9 10 10 10 11 11 10
29 31 32 31 29 27 27 28 25 23 23 23 23 22 21 21 20 19 18 17 15 13 10 8 8 10 12 14 14 15 15 13 12 11 10 9 9 9 10 11 12 12
32 32 34 34 31 30 30 31 28 26 26 26 26 24 23 24 24 22 21 20 18 15 13 11 10 10 11 13 15 15 15 15 14 13 12 11 10 9 9 10 10 11
36 35 35 34 32 31 33 34 32 30 29 29 29 27 25 25 26 26 24 23 21 18 15 13 11 11 11 13 14 15 15 15 14 15 15 14 13 12 11 10 10 10
39 39 40 39 35 32 34 36 36 33 31 30 31 31 28 27 28 27 26 25 24 22 19 16 14 13 13 15 16 16 15 15 16 17 18 17 16 15 14 13 12 11
43 43 45 46 44 39 38 39 40 37 35 34 35 35 33 31 31 31 30 29 28 26 23 20 18 17 19 21 21 20 20 20 20 22 21 19 18 17 16 16 16 15
46 47 47 49 51 50 47 46 46 44 41 39 38 37 37 37 36 36 35 33 31 29 27 24 22 21 24 26 25 25 25 25 25 24 22 20 20 20 18 17 18 18
49 51 51 51 52 52 50 51 54 52 48 46 43 39 39 41 41 40 39 37 35 33 31 28 26 26 28 29 29 28 28 28 27 26 24 23 23 22 20 19 20 20
51 54 54 54 54 53 51 53 56 55 52 51 49 46 43 44 44 44 45 43 41 39 37 35 32 31 32 34 35 33 30 30 29 29 28 28 26 24 23 22 21 21
54 56 57 57 56 57 58 58 58 56 54 54 53 50 48 47 46 47 49 49 47 44 43 42 38 36 36 38 39 35 32 32 33 32 32 30 27 26 25 25 24 23
58 58 59 59 58 58 60 60 59 57 56 55 54 52 51 49 48 49 50 51 50 48 48 48 44 41 40 41 41 39 36 37 38 37 36 34 31 30 30 30 29 27
Wind_Direction
57 59 60 63 65 66 67 66 64 62 62 63 62 60 57 56 54 55 57 59 61 61 64 67 69 69 68 67 67 66 65 64 62 62 61 60 58 56 53 50 49 48
59 64 63 62 62 63 62 65 64 62 61 61 62 62 59 57 55 54 55 57 60 62 62 64 67 69 69 68 67 66 66 66 64 63 62 61 60 58 56 53 51 49
73 78 77 70 68 66 63 62 62 61 60 57 58 60 59 58 56 54 53 55 58 60 61 62 64 66 66 66 66 65 64 64 64 63 62 61 59 59 58 56 54 52
83 93 99 89 82 78 71 65 60 57 58 57 54 55 55 55 54 53 52 52 53 56 58 59 60 62 63 63 63 62 60 60 60 61 60 59 58 57 56 55 54 53
3 352 21 102 99 94 85 74 65 56 54 54 54 51 51 51 51 48 48 49 50 51 52 53 55 58 60 60 61 61 59 57 55 55 55 55 55 54 52 51 50 49
349 334 330 356 95 100 93 84 75 61 52 49 49 49 47 46 46 43 41 43 45 46 45 46 48 51 54 55 56 57 57 55 53 52 51 50 50 50 49 48 46 44
146 321 325 326 347 62 94 86 76 70 61 49 41 42 43 42 40 38 35 36 39 40 38 36 37 42 46 47 49 50 51 51 50 49 47 45 45 44 44 43 42 41
201 212 255 283 312 315 323 69 57 70 89 68 44 33 35 38 38 34 30 29 31 35 34 29 27 29 33 38 40 41 42 43 43 42 41 39 39 38 37 37 38 39
223 215 240 267 276 286 288 286 323 315 82 78 56 33 22 28 34 33 31 25 20 24 27 26 21 18 20 25 30 33 34 35 35 34 33 33 32 31 31 32 32 34
232 222 234 262 262 265 269 257 245 252 277 338 33 21 2 5 15 21 27 24 16 12 14 17 20 17 12 12 16 21 25 26 27 27 27 28 26 26 26 27 28 28
236 233 233 246 259 269 276 271 256 248 257 270 284 304 320 326 336 352 3 14 15 10 5 6 12 15 12 7 6 9 13 16 18 20 22 22 21 20 20 21 23 23
249 249 242 241 254 269 279 280 273 263 259 261 263 266 278 288 294 310 328 344 357 360 360 1 2 4 7 7 5 4 5 8 10 11 14 16 15 13 13 14 15 16
254 258 253 247 249 256 263 270 272 268 258 253 253 251 252 261 267 278 293 306 320 330 335 349 352 352 356 2 4 3 1 1 4 5 4 6 8 6 4 6 7 8
255 259 256 253 253 256 260 265 269 268 259 251 249 245 244 248 253 260 271 279 286 296 306 317 328 333 339 345 351 356 360 359 360 1 360 359 1 360 357 357 359 1
254 256 255 254 255 258 262 262 262 264 261 254 248 244 243 246 250 255 261 264 266 270 282 296 307 316 322 329 336 341 347 353 356 359 1 360 359 357 355 352 350 350
249 251 251 250 251 255 259 257 255 257 257 252 247 247 248 246 247 254 257 256 256 257 264 277 287 300 311 320 327 330 333 341 350 356 359 2 0 356 352 349 346 341
245 248 248 247 248 252 255 253 250 250 251 250 247 248 250 247 244 248 253 252 250 248 250 258 270 289 305 312 317 321 325 330 339 346 349 353 357 355 348 344 341 338
240 244 248 248 247 249 250 250 248 246 247 250 247 244 246 245 243 245 247 247 245 242 241 248 264 284 299 303 302 305 310 317 324 329 331 333 339 344 344 340 337 335
239 243 247 248 247 245 246 248 248 247 247 246 243 241 241 242 242 242 243 243 242 240 239 248 265 279 293 302 300 294 293 300 308 314 315 315 319 324 329 331 330 330
240 243 247 247 244 240 240 244 246 247 246 243 239 239 239 239 241 241 242 244 243 239 237 245 258 269 283 300 304 296 289 291 299 306 306 302 303 307 311 314 316 318
239 243 246 246 244 241 240 243 245 245 245 241 238 238 238 237 239 243 246 249 246 240 237 241 250 263 281 295 298 294 289 287 291 297 297 292 292 294 297 300 302 306
236 240 243 244 243 243 244 245 245 244 242 240 238 241 241 238 239 243 248 250 247 241 239 241 248 266 284 293 294 290 288 286 287 289 287 284 284 285 286 291 293 297
233 233 236 238 239 241 243 245 245 243 242 240 239 241 243 242 243 246 248 249 246 242 240 241 250 269 284 291 291 290 287 285 285 284 281 280 281 278 276 281 283 288
229 228 230 233 235 236 237 239 241 242 242 242 240 240 241 243 246 248 249 249 247 244 243 243 253 272 285 290 291 291 287 283 280 279 278 279 278 273 269 270 271 276
226 225 228 230 232 233 234 237 239 241 242 243 242 242 242 243 244 245 247 248 248 247 246 246 254 272 284 287 289 288 282 277 275 274 275 277 274 269 266 266 265 266
227 226 226 227 229 232 234 237 240 241 242 243 244 246 246 246 244 242 243 246 248 249 249 249 256 270 281 284 285 282 278 275 274 273 275 275 272 268 266 268 267 265
Height
11036 11036 11035 11035 11035 11034 11034 11033 11033 11033 11032 11032 11031 11031 11031 11030 11030 11029 11029 11028 11027 11026 11025 11024 11023 11022 11021 11020 11019 11018 11017 11016 11015 11013 11012 11011 11010 11009 11008 11007 11006 11005
11037 11036 11036 11035 11035 11035 11035 11034 11034 11033 11033 11033 11032 11031 11031 11031 11031 11030 11030 11030 11029 11028 11027 11026 11025 11024 11023 11022 11021 11020 11019 11018 11017 11016 11014 11013 11012 11011 11010 11009 11008 11007
11037 11036 11036 11035 11035 11035 11035 11035 11035 11034 11033 11033 11033 11032 11032 11031 11031 11031 11031 11031 11030 11030 11029 11028 11027 11026 11025 11024 11023 11022 11021 11020 11019 11018 11017 11015 11014 11013 11012 11011 11010 11009
11036 11035 11035 11035 11034 11035 11035 11035 11035 11035 11034 11033 11033 11033 11032 11032 11031 11031 11031 11031 11031 11031 11030 11030 11028 11027 11026 11026 11025 11024 11023 11022 11021 11020 11019 11018 11017 11016 11014 11013 11012 11011
11035 11035 11035 11034 11034 11034 11034 11034 11035 11035 11034 11034 11033 11033 11033 11033 11032 11032 11032 11032 11032 11032 11031 11031 11030 11029 11028 11027 11026 11026 11025 11024 11023 11021 11020 11020 11019 11018 11017 11016 11015 11014
11034 11034 11034 11034 11034 11033 11033 11033 11034 11035 11035 11034 11034 11033 11033 11033 11033 11032 11032 11032 11032 11032 11032 11031 11031 11030 11029 11028 11028 11027 11026 11025 11024 11023 11022 11021 11020 11020 11019 11018 11017 11016
11033 11033 11033 11033 11033 11033 11032 11032 11033 11034 11034 11034 11034 11034 11033 11033 11033 11033 11033 11033 11032 11032 11032 11032 11031 11030 11030 11029 11028 11028 11027 11027 11026 11025 11024 11023 11022 11021 11021 11020 11019 11018
11032 11032 11032 11032 11032 11032 11032 11031 11032 11032 11032 11033 11034 11034 11034 11033 11033 11033 11033 11033 11033 11032 11032 11032 11031 11030 11030 11029 11029 11028 11028 11028 11027 11027 11026 11025 11024 11023 11022 11022 11021 11020
11031 11031 11031 11031 11031 11031 11031 11031 11031 11031 11031 11031 11032 11033 11034 11033 11033 11033 11033 11034 11033 11033 11032 11032 11031 11030 11030 11030 11029 11029 11028 11028 11028 11028 11027 11027 11026 11025 11024 11023 11022 11022
11030 11030 11030 11030 11030 11030 11030 11030 11030 11030 11031 11030 11031 11032 11033 11033 11033 11033 11033 11033 11033 11033 11033 11032 11031 11030 11030 11030 11029 11029 11029 11029 11028 11028 11028 11028 11027 11027 11026 11025 11024 11023
11028 11028 11028 11029 11029 11029 11029 11030 11030 11030 11030 11030 11030 11031 11032 11033 11033 11033 11033 11033 11033 11033 11033 11032 11031 11031 11030 11030 11029 11029 11029 11029 11029 11029 11029 11028 11028 11027 11027 11026 11025 11024
11026 11026 11027 11027 11027 11027 11028 11028 11028 11028 11029 11029 11030 11030 11031 11032 11032 11032 11032 11032 11032 11032 11032 11032 11031 11031 11030 11030 11029 11029 11029 11029 11029 11029 11028 11028 11028 11028 11027 11027 11026 11025
11022 11023 11024 11024 11025 11025 11025 11025 11026 11026 11026 11027 11028 11029 11030 11030 11031 11031 11031 11031 11031 11031 11031 11031 11031 11030 11030 11029 11029 11029 11028 11028 11028 11028 11028 11028 11028 11028 11027 11027 11026 11026
11019 11020 11020 11021 11022 11023 11023 11023 11023 11023 11024 11024 11025 11027 11027 11028 11029 11029 11029 11029 11030 11030 11030 11030 11030 11029 11029 11029 11028 11028 11028 11028 11028 11028 11028 11028 11028 11027 11027 11027 11026 11026
11015 11016 11016 11018 11020 11020 11020 11020 11021 11021 11021 11021 11023 11024 11025 11026 11027 11027 11027 11028 11028 11028 11028 11028 11028 11028 11028 11028 11027 11027 11027 11027 11027 11027 11027 11028 11028 11028 11027 11027 11026 11026
11011 11011 11012 11014 11015 11016 11016 11016 11017 11018 11018 11018 11019 11020 11022 11023 11024 11025 11026 11026 11026 11026 11026 11027 11027 11027 11027 11027 11027 11027 11027 11026 11026 11027 11027 11027 11027 11028 11027 11027 11027 11026
11007 11008 11008 11010 11011 11012 11012 11013 11014 11015 11015 11015 11016 11017 11019 11020 11022 11023 11024 11024 11024 11024 11024 11024 11025 11026 11026 11027 11027 11027 11026 11026 11026 11026 11026 11027 11027 11027 11027 11027 11027 11027
11003 11004 11006 11007 11008 11008 11008 11009 11011 11011 11011 11012 11013 11014 11016 11017 11018 11019 11020 11021 11021 11021 11022 11022 11023 11024 11025 11025 11025 11026 11026 11026 11026 11026 11026 11026 11026 11026 11027 11027 11026 11026
10999 11001 11003 11004 11005 11005 11005 11006 11007 11007 11008 11009 11010 11012 11013 11014 11015 11016 11017 11018 11019 11019 11019 11020 11021 11021 11022 11022 11022 11023 11024 11025 11025 11025 11026 11026 11026 11026 11026 11026 11026 11026
10995 10997 10998 10999 11001 11002 11002 11001 11002 11003 11003 11005 11007 11009 11010 11011 11012 11012 11013 11015 11016 11016 11016 11017 11017 11017 11018 11019 11020 11021 11022 11023 11023 11024 11025 11025 11025 11025 11025 11025 11025 11025
10991 10993 10993 10994 10997 10998 10997 10996 10997 10998 10999 11001 11003 11004 11006 11007 11008 11008 11010 11011 11012 11013 11013 11012 11013 11013 11014 11015 11017 11018 11019 11020 11021 11022 11022 11023 11023 11024 11024 11024 11024 11025
10987 10988 10988 10989 10991 10992 10991 10990 10991 10992 10994 10995 10998 11000 11002 11003 11003 11004 11006 11007 11009 11009 11009 11009 11009 11010 11011 11012 11013 11014 11014 11016 11017 11018 11019 11020 11021 11021 11022 11023 11023 11023
10980 10982 10983 10983 10985 10986 10985 10983 10984 10987 10989 10990 10993 10995 10997 10997 10999 11000 11001 11003 11004 11005 11005 11004 11005 11006 11007 11008 11009 11010 11010 11012 11013 11014 11015 11016 11017 11018 11019 11020 11020 11021
10973 10975 10976 10977 10978 10978 10977 10976 10979 10982 10984 10985 10987 10989 10991 10992 10993 10995 10996 10997 10999 10999 11000 11000 11000 11001 11002 11003 11004 11006 11007 11008 11009 11010 11011 11012 11014 11015 11016 11017 11017 11018
10967 10968 10969 10970 10970 10970 10969 10971 10974 10976 10978 10979 10981 10983 10985 10986 10988 10989 10991 10991 10993 10994 10995 10995 10996 10996 10997 10999 11001 11002 11003 11004 11004 11006 11007 11008 11010 11011 11011 11012 11013 11014
10962 10962 10962 10963 10963 10963 10964 10966 10968 10970 10972 10974 10975 10977 10979 10981 10983 10983 10984 10985 10987 10988 10990 10990 10990 10990 10992 10994 10996 10997 10998 10999 11000 11001 11002 11004 11005 11006 11007 11008 11009 11010